Rockland, ME

6:00 PM EDT on September 21, 2017 (GMT -0400)
Knox County Regional

Weather History for KRKD - July, 2013

Change the Weather History Date:

Monday, July 8, 2013

  Actual Average Record
Temperature  
Mean Temperature 66 °F -  
Max Temperature 71 °F 70 °F 82 °F (2015)
Min Temperature 62 °F 54 °F 51 °F (2007)
Cooling Degree Days 2    
Growing Degree Days 16 (Base 50)    
Moisture  
Dew Point 63 °F    
Average Humidity 85    
Maximum Humidity 100    
Minimum Humidity 73    
Precipitation  
Precipitation 0.71 in - - ()
Sea Level Pressure  
Sea Level Pressure 29.98 in    
Wind  
Wind Speed - (North)    
Max Wind Speed -    
Max Gust Speed -    
Visibility 9 miles    
Events      
Averages and records for this station are not official NWS values.
T = Trace of Precipitation, MM = Missing Value Source: NWS Daily Summary

Daily Weather History Graph

Daily Weather History Graph

Search for Another Location

Airport or City:

Trip Planner

Search our weather history database for the weather conditions in past years. The results will help you decide how hot, cold, wet, or windy it might be!

Date:

Astronomy

Jul. 08, 2013 Rise Set
Actual Time 5:01 AM EDT 8:20 PM EDT
Civil Twilight 4:26 AM EDT 8:56 PM EDT
Nautical Twilight 3:39 AM EDT 9:42 PM EDT
Astronomical Twilight 2:41 AM EDT 10:40 PM EDT
Moon 5:31 AM EDT (7/8) 8:16 PM EDT (7/8)
Length of Visible Light 16h 30m
Length of Day
15h 19m
New Moon, 0% of the Moon is Illuminated
Jul 8
New Moon
Jul 15
First Quarter
Jul 22
Full
Jul 29
Last Quarter
Aug 6
New

Hourly Weather History & Observations

Time (EDT) Temp. Dew Point Humidity Pressure Visibility Wind Dir Wind Speed Gust Speed Precip Events Conditions
12:15 AM 71.6 °F 66.2 °F 83% 29.92 in 10.0 mi North - - N/A   Clear
12:35 AM 71.6 °F 66.2 °F 83% 29.91 in 10.0 mi North - - N/A   Clear
12:55 AM 71.6 °F 66.2 °F 83% 29.92 in 10.0 mi North - - N/A   Scattered Clouds
1:15 AM 71.6 °F 66.2 °F 83% 29.92 in 10.0 mi North - - N/A   Overcast
1:35 AM 71.6 °F 66.2 °F 83% 29.91 in 10.0 mi North - - N/A   Scattered Clouds
1:55 AM 71.6 °F 66.2 °F 83% 29.91 in 10.0 mi North - - N/A   Clear
2:15 AM 69.8 °F 66.2 °F 88% 29.90 in 10.0 mi North - - N/A   Clear
2:35 AM 69.8 °F 66.2 °F 88% 29.89 in 10.0 mi North - - N/A   Clear
2:55 AM 69.8 °F 68.0 °F 94% 29.90 in 9.0 mi North - - N/A   Clear
3:15 AM 69.8 °F 66.2 °F 88% 29.90 in 10.0 mi North - - N/A   Clear
3:35 AM 69.8 °F 66.2 °F 88% 29.90 in 9.0 mi North - - N/A   Clear
3:55 AM 69.8 °F 68.0 °F 94% 29.90 in 10.0 mi North - - N/A   Scattered Clouds
4:15 AM 69.8 °F 68.0 °F 94% 29.92 in 7.0 mi North - - N/A   Mostly Cloudy
4:35 AM 71.6 °F 69.8 °F 94% 29.92 in 9.0 mi North - - N/A   Mostly Cloudy
4:55 AM 69.8 °F 69.8 °F 100% 29.93 in 2.5 mi North - - 0.29 in   Overcast
5:15 AM 69.8 °F 68.0 °F 94% 29.93 in 5.0 mi North - - 0.01 in   Mostly Cloudy
5:35 AM 69.8 °F 68.0 °F 94% 29.92 in 5.0 mi North - - 0.01 in   Scattered Clouds
5:55 AM 69.8 °F 68.0 °F 94% 29.93 in 8.0 mi North - - 0.02 in   Mostly Cloudy
6:15 AM 69.8 °F 68.0 °F 94% 29.94 in 5.0 mi North - - 0.10 in   Overcast
6:35 AM 69.8 °F 68.0 °F 94% 29.94 in 4.0 mi North - - 0.25 in   Mostly Cloudy
6:55 AM 69.8 °F 68.0 °F 94% 29.94 in 3.0 mi North - - 0.28 in   Overcast
7:16 AM 68.0 °F 66.2 °F 94% 29.94 in 7.0 mi North - - 0.10 in   Mostly Cloudy
7:35 AM 64.4 °F 60.8 °F 88% 29.97 in 8.0 mi North - - 0.12 in   Mostly Cloudy
7:56 AM 62.6 °F 59.0 °F 88% 29.97 in 8.0 mi North - - N/A   Overcast
8:15 AM 62.6 °F 60.8 °F 94% 29.98 in 10.0 mi North - - N/A   Mostly Cloudy
8:35 AM 62.6 °F 57.2 °F 82% 29.98 in 10.0 mi North - - N/A   Mostly Cloudy
8:55 AM 62.6 °F 55.4 °F 77% 29.98 in 10.0 mi North - - N/A   Overcast
9:15 AM 62.6 °F 57.2 °F 82% 29.98 in 10.0 mi North - - N/A   Overcast
9:35 AM 62.6 °F 57.2 °F 82% 29.99 in 10.0 mi North - - N/A   Overcast
9:55 AM 62.6 °F 57.2 °F 82% 29.99 in 10.0 mi North - - N/A   Overcast
10:15 AM 64.4 °F 59.0 °F 83% 29.99 in 10.0 mi North - - N/A   Overcast
10:35 AM 66.2 °F 60.8 °F 83% 29.99 in 10.0 mi North - - N/A   Overcast
10:55 AM 66.2 °F 60.8 °F 83% 29.98 in 10.0 mi North - - N/A   Overcast
11:15 AM 66.2 °F 60.8 °F 83% 29.99 in 10.0 mi North - - N/A   Overcast
11:35 AM 66.2 °F 60.8 °F 83% 29.99 in 10.0 mi North - - N/A   Overcast
11:55 AM 66.2 °F 60.8 °F 83% 30.00 in 10.0 mi North - - N/A   Scattered Clouds
12:15 PM 68.0 °F 62.6 °F 83% 30.00 in 10.0 mi North - - N/A   Partly Cloudy
12:35 PM 69.8 °F 62.6 °F 78% 29.99 in 10.0 mi North - - N/A   Mostly Cloudy
12:55 PM 69.8 °F 62.6 °F 78% 30.00 in 10.0 mi North - - N/A   Mostly Cloudy
1:15 PM 69.8 °F 62.6 °F 78% 30.00 in 10.0 mi North - - N/A   Scattered Clouds
1:35 PM 71.6 °F 64.4 °F 78% 30.00 in 10.0 mi North - - N/A   Partly Cloudy
1:55 PM 71.6 °F 62.6 °F 73% 30.00 in 10.0 mi North - - N/A   Partly Cloudy
2:15 PM 71.6 °F 62.6 °F 73% 30.00 in 10.0 mi North - - N/A   Scattered Clouds
2:35 PM 71.6 °F 64.4 °F 78% 30.01 in 10.0 mi North - - N/A   Scattered Clouds
2:55 PM 71.6 °F 64.4 °F 78% 30.01 in 10.0 mi North - - N/A   Scattered Clouds
3:15 PM 69.8 °F 64.4 °F 83% 30.01 in 10.0 mi North - - N/A   Mostly Cloudy
3:35 PM 71.6 °F 64.4 °F 78% 30.01 in 10.0 mi North - - N/A   Mostly Cloudy
3:55 PM 69.8 °F 64.4 °F 83% 30.01 in 10.0 mi North - - N/A   Mostly Cloudy
4:15 PM 71.6 °F 64.4 °F 78% 30.01 in 10.0 mi North - - N/A   Scattered Clouds
4:35 PM 71.6 °F 64.4 °F 78% 30.00 in 10.0 mi North - - N/A   Mostly Cloudy
4:55 PM 71.6 °F 64.4 °F 78% 30.00 in 10.0 mi North - - N/A   Scattered Clouds
5:15 PM 71.6 °F 64.4 °F 78% 30.01 in 10.0 mi North - - N/A   Partly Cloudy
5:35 PM 71.6 °F 64.4 °F 78% 30.01 in 10.0 mi North - - N/A   Scattered Clouds
5:55 PM 69.8 °F 64.4 °F 83% 30.02 in 10.0 mi North - - N/A   Clear
6:15 PM 69.8 °F 62.6 °F 78% 30.01 in 10.0 mi North - - N/A   Clear
6:35 PM 68.0 °F 62.6 °F 83% 30.01 in 10.0 mi North - - N/A   Clear
6:55 PM 66.2 °F 62.6 °F 88% 30.00 in 10.0 mi North - - N/A   Clear
7:15 PM 66.2 °F 62.6 °F 88% 30.01 in 10.0 mi North - - N/A   Clear
7:35 PM 64.4 °F 60.8 °F 88% 30.02 in 10.0 mi North - - N/A   Partly Cloudy
7:55 PM 62.6 °F 60.8 °F 94% 30.02 in 10.0 mi North - - N/A   Scattered Clouds
8:15 PM 62.6 °F 60.8 °F 94% 30.04 in 10.0 mi North - - N/A   Partly Cloudy
8:35 PM 62.6 °F 60.8 °F 94% 30.04 in 8.0 mi North - - N/A   Mostly Cloudy
8:55 PM 62.6 °F 60.8 °F 94% 30.05 in 10.0 mi North - - N/A   Mostly Cloudy
9:15 PM 62.6 °F 60.8 °F 94% 30.05 in 10.0 mi North - - N/A   Mostly Cloudy
9:35 PM 62.6 °F 57.2 °F 82% 30.05 in 10.0 mi North - - N/A   Mostly Cloudy
9:55 PM 62.6 °F 57.2 °F 82% 30.06 in 10.0 mi North - - N/A   Overcast
10:15 PM 62.6 °F 57.2 °F 82% 30.06 in 10.0 mi North - - N/A   Overcast
10:35 PM 62.6 °F 57.2 °F 82% 30.07 in 10.0 mi North - - N/A   Mostly Cloudy
10:55 PM 62.6 °F 59.0 °F 88% 30.06 in 10.0 mi North - - N/A   Overcast
11:15 PM 62.6 °F 59.0 °F 88% 30.07 in 10.0 mi North - - N/A   Mostly Cloudy
11:35 PM 62.6 °F 59.0 °F 88% 30.07 in 10.0 mi North - - N/A   Overcast
11:55 PM 62.6 °F 59.0 °F 88% 30.08 in 10.0 mi North - - N/A   Overcast